Location: Unspecified
(0.0000°N, 0.0000°E)
Time: 06:48:18
(UTC+00:00)

S-56A Canister/Altair - Visible Passes

Search period start: 18 August 2017 00:00
Search period end: 28 August 2017 00:00
Orbit: 637 x 2497 km, 38.9° (Epoch: 17 August)

Date Brightness Start Highest point End Pass type
(mag) Time Alt. Az. Time Alt. Az. Time Alt. Az.
18 Aug 11.5 02:45:19 11° S 02:49:42 13° SSE 02:55:41 10° SE visible
18 Aug 10.8 04:45:23 10° SSW 04:59:07 40° SE 05:10:43 10° ENE visible
18 Aug 9.4 19:40:02 10° W 19:45:02 31° SSW 19:49:10 19° SSE visible
19 Aug 11.6 02:14:49 11° SSE 02:15:57 11° SSE 02:19:38 10° SE visible
19 Aug 10.9 04:12:22 10° SSW 04:25:38 36° SE 04:37:24 10° E visible
19 Aug 9.1 19:07:36 10° WNW 19:12:26 35° SW 19:18:56 10° SSE visible
20 Aug 11.0 03:41:52 16° SSW 03:52:07 32° SE 04:03:53 10° E visible
20 Aug 8.7 18:35:13 10° WNW 18:39:54 42° SW 18:46:17 10° SSE visible
21 Aug 11.1 03:11:32 20° S 03:18:35 28° SE 03:30:06 10° E visible
21 Aug 10.1 05:11:00 10° SW 05:26:18 78° SE 05:38:47 10° NE visible
22 Aug 11.1 02:41:15 23° SSE 02:45:02 25° SE 02:56:04 10° E visible
22 Aug 10.1 04:38:44 13° SW 04:52:55 70° SE 05:05:55 10° ENE visible
23 Aug 11.2 02:11:01 21° SSE 02:11:29 21° SE 02:21:44 10° ESE visible
23 Aug 10.2 04:08:30 22° SSW 04:19:29 63° SE 04:32:54 10° ENE visible
23 Aug 10.3 19:06:07 10° SW 19:07:35 11° SSW 19:09:08 10° SSW visible
24 Aug 11.4 01:40:50 17° SE 01:40:50 17° SE 01:47:01 10° ESE visible
24 Aug 10.3 03:38:19 33° SSW 03:46:01 56° SE 03:59:44 10° ENE visible
24 Aug 10.1 05:38:12 10° WSW 05:52:53 56° NW 06:05:02 10° NNE visible
24 Aug 10.2 18:32:44 10° SW 18:34:54 12° SSW 18:37:18 10° S visible
25 Aug 11.7 01:10:41 11° ESE 01:10:41 11° ESE 01:11:48 10° ESE visible
25 Aug 10.4 03:08:10 41° S 03:12:33 50° SE 03:26:21 10° ENE visible
25 Aug 10.0 05:05:40 13° WSW 05:19:33 64° NW 05:32:27 10° NE visible
26 Aug 10.4 02:38:02 44° SSE 02:39:06 44° SE 02:52:48 10° ENE visible
26 Aug 9.9 04:35:31 24° WSW 04:46:10 72° NW 04:59:44 10° NE visible
27 Aug 10.7 02:07:53 37° ESE 02:07:53 37° ESE 02:19:04 10° ENE visible
27 Aug 9.9 04:05:22 39° WSW 04:12:45 80° NW 04:26:53 10° NE visible
